sat.trackr.live / text

‹ back to catalog

PRAETORIAN SDA_619

NORAD 65582 · 2025-203T

PAYLOAD ACTIVE UNKNOWN

§ Identity

Operator
Country
US
Launch date
2025-09-10
Launch site
AFWTR
Launch vehicle
Mass (kg)
RCS (m²)

Purposes: military

External: N2YO · Heavens-Above · Gunter

§ Orbital elements

Epoch: 2026-05-25T02:15:55.048032Z

Period
104.05 min
Inclination
81.3064°
Eccentricity
0.0007054
Mean motion
13.83941651 rev/d
Perigee alt
944.8 km
Apogee alt
955.1 km
Semi-major
7,328.1 km
B*
1.8310e-4
RAAN
32.1560°
Arg perigee
253.1764°
Mean anomaly
106.8619°
Rev number
3,613

§ Raw data

PRAETORIAN SDA_6191 65582U 25203T   26145.09438713  .00000215  00000+0  18310-3 0  99942 65582  81.3064  32.1560 0007054 253.1764 106.8619 13.83941651 36136

JSON: /api/v1/satellites/65582 · /tle

For live sub-satellite position, see the globe view (requires WebGL).

§ Visibility from observer

Set your observer location to see the next 7 days of passes ≥ 10°. The values pass through the URL so the page stays shareable.

No JS? Fill the form by hand. The geolocation button needs JavaScript.